星链-3901 (STARLINK-3901 )

导读

STARLINK-3901是美国SpaceX公司星链星座中的一颗低轨卫星互联网卫星,于2022年5月13日由猎鹰9号运载火箭发射升空。它运行在近地轨道,属于星链大规模组网中的一颗卫星,为全球提供高速低延迟互联网覆盖,尤其可服务传统网络难以覆盖的偏远区域。该星设计寿命5年以上,配备霍尔推进器等设备,可自主规避太空碰撞,是星链星座部署扩张中的组成部分,星链整体计划最终部署超四万颗卫星,推动全球联网覆盖同时也引发太空拥堵等争议。

Basic Information
目录编号:
52574
目录名称:
STARLINK-3901
国际标识:
2022-051AQ
轨道中心:
EARTH
卫星名称:
星链-3901
卫星全名:
星链-3901 (STARLINK-3901 )
卫星状态:
在轨 (已飞行1496 天)
发射日期:
2022-05-13 UTC
国别 :
美国 (US)
星等 :
--
Orbit Information
数据来源 国际轨道数据 AOE轨道数据
星历时间 2026-06-17T20:00:03+0800
5小时前
查看轨道信息
2026-06-11T20:00:00+0800
6天前
查看轨道信息
半长轴 6900.975km 6917.895km
偏心率 0.0001571 0.0001608
轨道倾角 53.160° 53.163°
近地点辐角 150.989° 77.347°
升交点赤经 30.890° 57.923°
平近点角 134.307° 325.010°
近地点 521.753km 538.645km
远地点 523.923km 540.871km
周期 95.088分钟 95.438分钟
每日圈数 15.143879 15.088355
Detailed Information
固有亮度:
5
最大亮度:
2.5
卫星平台:
Starlink v1.5
覆盖范围:
全球
运营商:
太空探索技术公司
运营商所在国:
美国
制造商(研发单位):
太空探索技术公司
制造商所在国:
美国
使用方式:
暂无
Satellite Introduction
星链(Starlink)计划是由太空探索技术公司(SpaceX)提出的一个巨型低轨卫星互联网星座项目,计划在2019年至2024年间在太空搭建由约1.2万颗卫星组成的“星链”网络,其中1584颗将部署在地球上空550千米处的近地轨道,并从2020年开始工作。该卫星仍在工作。
2D Orbit Map
3D Orbit Map
Orbit Altitude Analysis Chart
Orbit Inclination Analysis Chart
Orbit Comprehensive Analysis Chart
View Comprehensive Chart